Location: Breungeshain
(50.5000°N, 9.2000°E)
Time: 20:46:03
(UTC+00:00)

ISS - Pass Details

Date: 27 May 2017
Orbit: 401 x 408 km, 51.6° (Epoch: 25 June)

Event Time Altitude Azimuth Distance (km) Brightness Sun altitude
Rises 22:01:02 0° 270° (W) 2,339 0.3 -15.9°
Reaches altitude 10° 22:03:07 10° 273° (W) 1,477 -0.7 -16.1°
Maximum altitude 22:06:26 70° 358° (N) 439 -3.6 -16.2°
Drops below altitude 10° 22:09:44 10° 83° (E) 1,473 -1.1 -16.4°
Sets 22:11:49 0° 85° (E) 2,332 -0.1 -16.5°
